Time,TemperatureF,DewpointF,PressureIn,WindDirection,WindDirectionDegrees,WindSpeedMPH,WindSpeedGustMPH,Humidity,HourlyPrecipIn,Conditions,Clouds,dailyrainin,SoftwareType,DateUTC
2013-09-25 15:34:00,0.0,99.9,30.15,SW,225,0.0,0.0,100,0.00,,CLR,0.00,VWS V13.01,2013-09-25 19:34:00,
2013-09-25 16:18:00,0.0,58.9,30.14,ENE,68,0.0,0.0,100,0.00,,CLR,0.00,VWS V13.01,2013-09-25 20:18:00,
2013-09-25 16:19:00,64.5,99.9,30.14,ENE,68,0.0,0.0,82,0.00,,CLR,29.17,VWS V13.01,2013-09-25 20:19:00,
2013-09-25 16:24:00,64.2,58.8,30.14,ENE,68,0.0,0.0,82,0.00,,CLR,0.00,VWS V13.01,2013-09-25 20:24:00,
2013-09-25 16:29:00,64.2,58.4,30.13,East,90,0.0,0.0,82,0.00,,CLR,0.00,VWS V13.01,2013-09-25 20:29:00,
2013-09-25 16:34:00,64.2,58.4,30.13,East,90,0.0,0.0,82,0.00,,CLR,0.00,VWS V13.01,2013-09-25 20:34:00,
2013-09-25 16:39:00,64.0,58.5,30.13,East,90,0.0,0.0,82,0.00,,CLR,0.00,VWS V13.01,2013-09-25 20:39:00,
2013-09-25 16:44:00,64.0,58.0,30.13,East,90,0.0,0.0,82,0.00,,CLR,0.00,VWS V13.01,2013-09-25 20:44:00,
2013-09-25 16:49:00,63.6,58.0,30.14,East,90,0.0,0.0,82,0.00,,CLR,0.00,VWS V13.01,2013-09-25 20:49:00,
2013-09-25 16:54:00,63.6,58.0,30.14,East,90,0.0,0.0,82,0.00,,CLR,0.00,VWS V13.01,2013-09-25 20:54:00,
2013-09-25 16:59:00,63.6,57.9,30.14,East,90,0.0,0.0,82,0.00,,CLR,0.00,VWS V13.01,2013-09-25 20:59:00,
2013-09-25 17:04:00,63.5,57.9,30.13,East,90,0.0,0.0,82,0.00,,CLR,0.00,VWS V13.01,2013-09-25 21:04:00,
2013-09-25 17:09:00,63.5,58.1,30.14,East,90,0.0,0.0,82,0.00,,CLR,0.00,VWS V13.01,2013-09-25 21:09:00,
2013-09-25 17:14:00,63.5,57.9,30.14,East,90,0.0,0.0,82,0.00,,BKN120,0.00,VWS V13.01,2013-09-25 21:14:00,
2013-09-25 17:19:00,63.1,57.9,30.14,East,90,0.0,0.0,83,0.00,,BKN120,0.00,VWS V13.01,2013-09-25 21:19:00,
2013-09-25 17:24:00,63.1,57.9,30.14,East,90,0.0,0.0,83,0.00,,BKN120,0.00,VWS V13.01,2013-09-25 21:24:00,
2013-09-25 17:29:00,63.1,57.7,30.14,East,90,0.0,0.0,83,0.00,,BKN120,0.00,VWS V13.01,2013-09-25 21:29:00,
2013-09-25 17:34:00,62.7,57.4,30.14,East,90,0.0,0.0,83,0.00,,BKN120,0.00,VWS V13.01,2013-09-25 21:34:00,
2013-09-25 17:39:00,62.6,57.5,30.14,East,90,0.0,0.0,83,0.00,,BKN120,0.00,VWS V13.01,2013-09-25 21:39:00,
2013-09-25 17:44:00,62.4,57.5,30.14,East,90,0.0,0.0,84,0.00,,OVC095,0.00,VWS V13.01,2013-09-25 21:44:00,
2013-09-25 17:49:00,62.4,57.5,30.14,East,90,0.0,0.0,84,0.00,,OVC095,0.00,VWS V13.01,2013-09-25 21:49:00,
2013-09-25 17:54:00,62.4,57.3,30.14,East,90,0.0,0.0,84,0.00,,OVC095,0.00,VWS V13.01,2013-09-25 21:54:00,
2013-09-25 17:59:00,62.2,57.1,30.13,East,90,0.0,0.0,84,0.00,,OVC095,0.00,VWS V13.01,2013-09-25 21:59:00,
2013-09-25 18:04:00,62.0,56.9,30.14,East,90,0.0,0.0,84,0.00,,-RA,0.00,VWS V13.01,2013-09-25 22:04:00,
2013-09-25 18:09:00,61.8,56.9,30.14,East,90,0.0,0.0,84,0.00,,-RA,0.00,VWS V13.01,2013-09-25 22:09:00,
2013-09-25 18:14:00,61.8,57.0,30.14,East,90,0.0,0.0,84,0.00,,-RA,0.00,VWS V13.01,2013-09-25 22:14:00,
2013-09-25 18:19:00,61.5,56.8,30.15,East,90,0.0,0.0,85,0.00,,-RA,0.00,VWS V13.01,2013-09-25 22:19:00,
2013-09-25 18:24:00,61.3,56.8,30.15,North,0,57.0,0.0,85,0.00,,-RA,0.00,VWS V13.01,2013-09-25 22:24:00,
2013-09-25 18:29:00,61.3,56.8,30.15,East,90,57.0,0.0,85,0.00,,-RA,0.00,VWS V13.01,2013-09-25 22:29:00,
2013-09-25 18:34:00,61.3,56.6,30.15,East,90,57.0,0.0,85,0.00,,-RA,0.00,VWS V13.01,2013-09-25 22:34:00,
2013-09-25 18:39:00,61.1,56.4,30.15,East,90,57.0,0.0,85,0.00,,-RA,0.00,VWS V13.01,2013-09-25 22:39:00,
2013-09-25 18:44:00,60.9,56.4,30.15,East,90,57.0,0.0,85,0.00,,OVC095,0.00,VWS V13.01,2013-09-25 22:44:00,
2013-09-25 18:49:00,60.9,56.4,30.14,East,90,57.0,0.0,85,0.00,,OVC095,0.00,VWS V13.01,2013-09-25 22:49:00,
2013-09-25 18:54:00,60.6,56.4,30.15,North,0,57.0,0.0,86,0.00,,OVC095,0.00,VWS V13.01,2013-09-25 22:54:00,
2013-09-25 18:59:00,60.6,56.4,30.15,East,90,57.0,0.0,86,0.00,,OVC095,0.00,VWS V13.01,2013-09-25 22:59:00,
2013-09-25 19:04:00,60.4,56.2,30.14,East,90,57.0,0.0,86,0.00,,OVC095,0.00,VWS V13.01,2013-09-25 23:04:00,
2013-09-25 19:09:00,60.4,55.8,30.14,East,90,57.0,0.0,86,0.00,,OVC095,0.00,VWS V13.01,2013-09-25 23:09:00,
2013-09-25 19:14:00,60.4,55.8,30.15,East,90,57.0,0.0,86,0.00,,OVC095,0.00,VWS V13.01,2013-09-25 23:14:00,
2013-09-25 19:19:00,60.0,56.0,30.15,East,90,57.0,0.0,86,0.00,,OVC095,0.00,VWS V13.01,2013-09-25 23:19:00,
2013-09-25 19:24:00,59.9,56.0,30.15,East,90,57.0,0.0,87,0.00,,OVC095,0.00,VWS V13.01,2013-09-25 23:24:00,
2013-09-25 19:29:00,59.7,55.8,30.15,East,90,57.0,0.0,87,0.00,,OVC095,0.00,VWS V13.01,2013-09-25 23:29:00,
2013-09-25 19:34:00,59.7,55.6,30.14,East,90,57.0,0.0,87,0.00,,OVC095,0.00,VWS V13.01,2013-09-25 23:34:00,
2013-09-25 19:40:00,59.5,55.6,30.14,East,90,57.0,0.0,87,0.00,,OVC095,0.00,VWS V13.01,2013-09-25 23:40:00,
2013-09-25 19:45:00,59.5,55.6,30.15,East,90,57.0,0.0,87,0.00,,OVC095,0.00,VWS V13.01,2013-09-25 23:45:00,
2013-09-25 19:50:00,59.3,55.6,30.15,East,90,57.0,0.0,87,0.00,,OVC095,0.00,VWS V13.01,2013-09-25 23:50:00,
2013-09-25 19:55:00,59.3,55.4,30.15,East,90,57.0,0.0,87,0.00,,OVC095,0.00,VWS V13.01,2013-09-25 23:55:00,
2013-09-25 20:00:00,59.1,55.4,30.15,East,90,57.0,0.0,87,0.00,,OVC095,0.00,VWS V13.01,2013-09-26 00:00:00,
2013-09-25 20:05:00,59.1,55.2,30.14,North,0,57.0,0.0,87,0.00,,OVC095,0.00,VWS V13.01,2013-09-26 00:05:00,
2013-09-25 20:10:00,59.1,55.2,30.14,East,90,57.0,0.0,87,0.00,,OVC085,0.00,VWS V13.01,2013-09-26 00:10:00,
2013-09-25 20:15:00,59.0,55.2,30.15,North,0,57.0,0.0,87,0.00,,OVC085,0.00,VWS V13.01,2013-09-26 00:15:00,
2013-09-25 20:20:00,59.0,55.1,30.15,East,90,57.0,0.0,87,0.00,,OVC085,0.00,VWS V13.01,2013-09-26 00:20:00,
2013-09-25 20:25:00,59.0,55.0,30.15,East,90,57.0,0.0,87,0.00,,OVC085,0.00,VWS V13.01,2013-09-26 00:25:00,
2013-09-25 20:30:00,58.8,55.0,30.16,ESE,112,57.0,0.0,87,0.00,,OVC085,0.00,VWS V13.01,2013-09-26 00:30:00,
2013-09-25 20:35:00,58.8,55.3,30.16,ESE,112,57.0,0.0,88,0.00,,OVC085,0.00,VWS V13.01,2013-09-26 00:35:00,
2013-09-25 20:40:00,58.8,55.3,30.15,ESE,112,57.0,0.0,88,0.00,,OVC085,0.00,VWS V13.01,2013-09-26 00:40:00,
2013-09-25 20:45:00,58.6,55.1,30.16,ESE,112,57.0,0.0,88,0.00,,OVC085,0.00,VWS V13.01,2013-09-26 00:45:00,
2013-09-25 20:50:00,58.6,55.1,30.15,ESE,112,57.0,0.0,88,0.00,,OVC085,0.00,VWS V13.01,2013-09-26 00:50:00,
2013-09-25 20:55:00,58.6,54.9,30.16,ESE,112,57.0,0.0,88,0.00,,OVC085,0.00,VWS V13.01,2013-09-26 00:55:00,
2013-09-25 21:00:00,58.4,54.9,30.15,ESE,112,57.0,0.0,88,0.00,,OVC085,0.00,VWS V13.01,2013-09-26 01:00:00,
2013-09-25 21:05:00,58.4,54.7,30.15,ESE,112,57.0,0.0,88,0.00,,OVC085,0.00,VWS V13.01,2013-09-26 01:05:00,
2013-09-25 21:10:00,58.2,54.7,30.15,ESE,112,57.0,0.0,88,0.00,,OVC085,0.00,VWS V13.01,2013-09-26 01:10:00,
2013-09-25 21:15:00,58.2,54.7,30.16,ESE,112,57.0,0.0,88,0.00,,OVC085,0.00,VWS V13.01,2013-09-26 01:15:00,
2013-09-25 21:20:00,58.2,54.7,30.16,ESE,112,57.0,0.0,88,0.00,,OVC085,0.00,VWS V13.01,2013-09-26 01:20:00,
2013-09-25 21:25:00,58.2,54.7,30.16,ESE,112,57.0,0.0,88,0.00,,OVC085,0.00,VWS V13.01,2013-09-26 01:25:00,
2013-09-25 21:30:00,58.2,54.7,30.16,ESE,112,57.0,0.0,88,0.00,,OVC085,0.00,VWS V13.01,2013-09-26 01:30:00,
2013-09-25 21:35:00,58.2,54.6,30.16,ESE,112,57.0,0.0,88,0.00,,OVC085,0.00,VWS V13.01,2013-09-26 01:35:00,
2013-09-25 21:40:00,58.2,54.6,30.16,ESE,112,57.0,0.0,89,0.00,,OVC085,0.00,VWS V13.01,2013-09-26 01:40:00,
2013-09-25 21:45:00,58.2,54.9,30.16,ESE,112,57.0,0.0,89,0.00,,OVC085,0.00,VWS V13.01,2013-09-26 01:45:00,
2013-09-25 21:50:00,58.1,54.9,30.16,ESE,112,57.0,0.0,89,0.00,,OVC085,0.00,VWS V13.01,2013-09-26 01:50:00,
2013-09-25 21:55:00,58.1,54.9,30.17,ESE,112,57.0,0.0,89,0.00,,OVC085,0.00,VWS V13.01,2013-09-26 01:55:00,
2013-09-25 22:00:00,58.1,54.9,30.17,ESE,112,57.0,0.0,89,0.00,,OVC085,0.00,VWS V13.01,2013-09-26 02:00:00,
2013-09-25 22:05:00,58.1,54.9,30.17,ESE,112,57.0,0.0,89,0.00,,OVC085,0.00,VWS V13.01,2013-09-26 02:05:00,
2013-09-25 22:10:00,57.9,54.7,30.17,ESE,112,57.0,0.0,89,0.00,,OVC085,0.00,VWS V13.01,2013-09-26 02:10:00,
2013-09-25 22:15:00,57.9,54.7,30.17,ESE,112,57.0,0.0,89,0.00,,OVC085,0.00,VWS V13.01,2013-09-26 02:15:00,
2013-09-25 22:20:00,57.9,54.7,30.17,ESE,112,57.0,0.0,89,0.00,,OVC085,0.00,VWS V13.01,2013-09-26 02:20:00,
2013-09-25 22:25:00,57.9,54.7,30.17,ESE,112,57.0,0.0,89,0.00,,OVC085,0.00,VWS V13.01,2013-09-26 02:25:00,
2013-09-25 22:30:00,57.9,54.7,30.17,ESE,112,57.0,0.0,89,0.00,,OVC085,0.00,VWS V13.01,2013-09-26 02:30:00,
2013-09-25 22:36:00,57.9,54.7,30.17,ESE,112,57.0,0.0,89,0.00,,OVC085,0.00,VWS V13.01,2013-09-26 02:36:00,
2013-09-25 22:41:00,57.9,54.7,30.17,ESE,112,57.0,0.0,89,0.00,,OVC085,0.00,VWS V13.01,2013-09-26 02:41:00,
2013-09-25 22:46:00,57.9,54.5,30.17,ESE,112,57.0,0.0,89,0.00,,OVC085,0.00,VWS V13.01,2013-09-26 02:46:00,
2013-09-25 22:51:00,57.9,54.5,30.17,North,0,57.0,0.0,89,0.00,,OVC085,0.00,VWS V13.01,2013-09-26 02:51:00,
2013-09-25 22:56:00,57.9,54.5,30.17,ESE,112,57.0,0.0,89,0.00,,OVC085,0.00,VWS V13.01,2013-09-26 02:56:00,
2013-09-25 23:01:00,57.7,54.5,30.17,ESE,112,57.0,0.0,89,0.00,,,0.00,VWS V13.01,2013-09-26 03:01:00,
2013-09-25 23:06:00,57.7,54.5,30.17,ESE,112,57.0,0.0,89,0.00,,,0.00,VWS V13.01,2013-09-26 03:06:00,
2013-09-25 23:11:00,57.7,54.5,30.17,ESE,112,57.0,0.0,89,0.02,,,0.02,VWS V13.01,2013-09-26 03:11:00,
2013-09-25 23:16:00,57.7,54.5,30.17,ESE,112,57.0,0.0,89,0.02,,,0.02,VWS V13.01,2013-09-26 03:16:00,
2013-09-25 23:21:00,57.5,54.3,30.17,ESE,112,57.0,0.0,89,0.02,,,0.02,VWS V13.01,2013-09-26 03:21:00,
2013-09-25 23:26:00,57.5,54.3,30.17,ESE,112,57.0,0.0,89,0.02,,,0.02,VWS V13.01,2013-09-26 03:26:00,
2013-09-25 23:31:00,57.5,54.3,30.18,ESE,112,57.0,0.0,89,0.02,,,0.02,VWS V13.01,2013-09-26 03:31:00,
2013-09-25 23:36:00,57.5,54.3,30.18,ESE,112,57.0,0.0,89,0.02,,,0.02,VWS V13.01,2013-09-26 03:36:00,
2013-09-25 23:41:00,57.3,54.1,30.17,ESE,112,57.0,0.0,89,0.02,,,0.02,VWS V13.01,2013-09-26 03:41:00,
2013-09-25 23:46:00,57.3,54.1,30.18,ESE,112,57.0,0.0,89,0.02,,,0.02,VWS V13.01,2013-09-26 03:46:00,
2013-09-25 23:51:00,57.3,54.1,30.18,ESE,112,57.0,0.0,89,0.02,,,0.02,VWS V13.01,2013-09-26 03:51:00,
2013-09-25 23:56:00,57.3,54.0,30.17,ESE,112,57.0,0.0,89,0.02,,,0.02,VWS V13.01,2013-09-26 03:56:00,